Location: Boiro
(42.6475°N, 8.8834°W)
Time: 22:57:28
(UTC+01:00)

Transit 2A - Pass Details

Date: 08 December 2021
Orbit: 591 x 967 km, 66.7° (Epoch: 18 January)

Event Time Altitude Azimuth Distance (km) Brightness Sun altitude
Rises 07:45:34 0° 335° (NNW) 3,656 - -12.0°
Exits shadow 07:46:16 - 337° (NNW) 3,440 9.0 -11.9°
Reaches altitude 10° 07:48:47 10° 349° (N) 2,714 8.5 -11.5°
Maximum altitude 07:53:41 23° 40° (NE) 1,939 8.3 -10.6°
Drops below altitude 10° 07:58:29 10° 90° (E) 2,646 10.0 -9.8°
Sets 08:01:33 0° 105° (ESE) 3,541 11.6 -9.3°
